Regional Weather Roundup
Issued by NWS

Home | Current Version | Previous Version | Text Only | Print | Product List | Glossary Off
Versions: 1 2 3 4 5 6 7 8 9 10 11 12 13 14 15 16 17 18 19 20 21 22 23 24 25 26 27 28 29 30 31 32 33 34 35 36 37 38 39 40 41 42 43 44 45 46 47 48 49 50

002
ASUS45 KCYS 200010
RWRWY

WYOMING REGIONAL WEATHER ROUNDUP
NATIONAL WEATHER SERVICE CHEYENNE WY
500 PM MST MON FEB 19 2018

NOTE:  "FAIR" INDICATES FEW OR NO CLOUDS BELOW 12,000 FEET
WITH NO SIGNIFICANT WEATHER AND/OR OBSTRUCTIONS TO VISIBILITY.

WYZ001-200100-
YELLOWSTONE NATIONAL PARK

CITY           SKY/WX    TMP DP  RH WIND       PRES   REMARKS
LK YELLOWSTONE   N/A      2  -4  76 CALM      29.49R
6HR MIN TEMP:   2; 6HR MAX TEMP:   9; 6HR PCP:  0.01;

W YELLOWSTONE  NOT AVBL

$$
WYZ002>013-054>058-071-098>099-200100-
NORTHERN WYOMING

CITY           SKY/WX    TMP DP  RH WIND       PRES   REMARKS
JACKSON        CLOUDY    17   3  54 W9        29.47R WCI   6
CODY           LGT SNOW  -4 -10  75 N12       29.81R WCI -22
GREYBULL       CLOUDY     2  -3  80 NW9       29.89R HAZE    WCI -13
6HR MIN TEMP:   1; 6HR MAX TEMP:   3; 6HR PCP: TRACE;

WORLAND        LGT SNOW   0  -5  79 N9        29.88R VSB 1   WCI -15
6HR MIN TEMP:   1; 6HR MAX TEMP:   2; 6HR PCP: TRACE;

SHERIDAN       CLOUDY     1  -4  79 NW12      29.90R HAZE    WCI -16
6HR MIN TEMP:   1; 6HR MAX TEMP:   3; 6HR PCP:  0.05;

BUFFALO        LGT SNOW  -1  -8  72 N13       29.81R WCI -19
6HR MIN TEMP:  -1; 6HR MAX TEMP:   1; 6HR PCP: TRACE;

GILLETTE       CLOUDY    -2  -7  79 N15       29.83R HAZE    WCI -22
6HR MIN TEMP:  -2; 6HR MAX TEMP:   2; 6HR PCP:  0.06;

HULETT         LGT SNOW   0  -8  71 MISG      29.86R
NEWCASTLE      LGT SNOW   1  -4  78 MISG      29.82S

$$
WYZ014>020-022>026-101>103-200100-
CENTRAL WYOMING

CITY           SKY/WX    TMP DP  RH WIND       PRES   REMARKS
BIG PINEY      LGT SNOW   6   2  83 S18       29.48R VSB 1   WCI -13
6HR MIN TEMP:   6; 6HR MAX TEMP:  12; 6HR PCP: TRACE;

PINEDALE       LGT SNOW   7   1  78 S13G18    29.50R WCI  -9
DUBOIS         NOT AVBL
LANDER         LGT SNOW   1  -4  79 E8        29.70R WCI -13
6HR MIN TEMP:   1; 6HR MAX TEMP:   3; 6HR PCP:  0.05;

RIVERTON       CLOUDY    -1  -8  72 NE9       29.72R WCI -16
6HR MIN TEMP:  -1; 6HR MAX TEMP:   3; 6HR PCP:  0.03;

CASPER         CLOUDY    -2  -7  79 NE12      29.72R HAZE    WCI -20
6HR MIN TEMP:  -2; 6HR MAX TEMP:   0; 6HR PCP:  0.06;

DOUGLAS        LGT SNOW  -1  -7  75 NE9       29.75S WCI -16
6HR MIN TEMP:  -1; 6HR MAX TEMP:   1; 6HR PCP: TRACE;


$$
WYZ021-027>030-104>119-200100-
SOUTHERN WYOMING

CITY           SKY/WX    TMP DP  RH WIND       PRES   REMARKS
EVANSTON       SNOW      12   9  87 SW5       29.49R VSB 1/2 WCI   4
6HR MIN TEMP:  10; 6HR MAX TEMP:  12; 6HR PCP: TRACE;

FORT BRIDGER   LGT SNOW   7   1  78 SE8       29.53  WCI  -6
ROCK SPRINGS   LGT SNOW   0  -9  65 NE18      29.56R WCI -21
6HR MIN TEMP:   0; 6HR MAX TEMP:   3; 6HR PCP: TRACE;

DIXON          LGT SNOW   7   1  75 N7        29.51R WCI  -5
RAWLINS        CLOUDY    -4 -10  75 N8        29.52R WCI -19
6HR MIN TEMP:  -3; 6HR MAX TEMP:   3;

SARATOGA       LGT SNOW   0  -6  78 NW15      29.49R WCI -20
LARAMIE        LGT SNOW   5   3  91 S10       29.40R VSB 3/4 WCI -10
6HR MIN TEMP:   5; 6HR MAX TEMP:  18; 6HR PCP:  0.02;

CHEYENNE       LGT SNOW   1  -3  83 N9        29.57R VSB 1   WCI -14
6HR MIN TEMP:   1; 6HR MAX TEMP:   6; 6HR PCP:  0.01;

TORRINGTON     LGT SNOW   3  -1  83 NE12      29.77F FOG     WCI -13
6HR MIN TEMP:   3; 6HR MAX TEMP:   5; 6HR PCP: TRACE;

PINE BLUFFS    CLOUDY     3   0  85 NE13      29.66R WCI -14

$$




USA.gov is the U.S. government's official web portal to all federal, state and local government web resources and services.